Location: Unspecified
(35.6961°N, 0.0000°E)
Time: 17:49:34
(UTC+00:00)

Altair - Pass Details

Date: 20 May 2019
Orbit: 1501 x 1683 km, 47.2° (Epoch: 16 June)

Event Time Altitude Azimuth Distance (km) Brightness Sun altitude
Rises 06:34:44 0° 269° (W) 4,930 9.6 19.0°
Reaches altitude 10° 06:38:07 10° 276° (W) 3,945 9.2 19.7°
Maximum altitude 06:47:48 47° 348° (NNW) 2,126 8.5 21.6°
Drops below altitude 10° 06:57:21 10° 60° (ENE) 3,884 11.0 23.5°
Sets 07:00:40 0° 66° (ENE) 4,849 11.4 24.2°
